sat.trackr.live / text

‹ back to catalog

STARLINK-33713

NORAD 63479 · 2025-070V

PAYLOAD ACTIVE UNKNOWN

§ Identity

Operator
Country
US
Launch date
2025-04-06
Launch site
AFETR
Launch vehicle
Mass (kg)
RCS (m²)

Purposes: comms

External: N2YO · Heavens-Above · Gunter

§ Orbital elements

Epoch: 2026-09-20T07:26:24.714528Z

Period
94.27 min
Inclination
43.0015°
Eccentricity
0.0001096
Mean motion
15.27579624 rev/d
Perigee alt
482.3 km
Apogee alt
483.8 km
Semi-major
6,861.2 km
B*
3.3453e-4
RAAN
236.9797°
Arg perigee
254.1329°
Mean anomaly
105.9402°
Rev number
8,278

§ Raw data

STARLINK-337131 63479U 25070V   26263.31000827  .00008954  00000+0  33453-3 0  99992 63479  43.0015 236.9797 0001096 254.1329 105.9402 15.27579624 82783

JSON: /api/v1/satellites/63479 · /tle

For live sub-satellite position, see the globe view (requires WebGL).

§ Visibility from observer

Set your observer location to see the next 7 days of passes ≥ 10°. The values pass through the URL so the page stays shareable.

No JS? Fill the form by hand. The geolocation button needs JavaScript.